Regional Weather Roundup
Issued by NWS

Home | Current Version | Previous Version | Graphics & Text | Print | Product List | Glossary On
Versions: 1 2 3 4 5 6 7 8 9 10 11 12 13 14 15 16 17 18 19 20 21 22 23 24 25 26 27 28 29 30 31 32 33 34 35 36 37 38 39 40 41 42 43 44 45 46 47 48 49 50
000
ASUS43 KLSX 250207
RWRMO

WEATHER SUMMARY FOR MISSOURI
NATIONAL WEATHER SERVICE SPRINGFIELD MO
900 PM CDT SAT JUN 24 2017

NOTE: "FAIR" INDICATES FEW OR NO CLOUDS BELOW 12,000 FEET WITH NO
       SIGNIFICANT WEATHER AND/OR OBSTRUCTIONS TO VISIBILITY.
       CURRENT SKY AND/OR WEATHER CONDITIONS ARE NOT AVAILABLE FOR
       CHILLICOTHE AND FARMINGTON.

MOZ001>031-035>038-043-044-053-054-250300-
...NORTHERN AND WESTERN MISSOURI...

CITY           SKY/WX    TMP DP  RH WIND       PRES   REMARKS
KANSAS CTY INT CLOUDY    70  50  49 SW5       30.16S
KANSAS C DTWN  CLEAR     75  44  33 W3        30.15S
LEE`S SUMMIT   PTCLDY    72  48  42 CALM      30.17S
ST JOSEPH      PTCLDY    72  51  47 W7        30.14S
CHILLICOTHE      N/A     68  48  48 CALM      30.14S
KIRKSVILLE     CLEAR     67  47  48 SW3       30.13S

$$
MOZ066>068-077>081-088>096-101>105-250300-
...SOUTHWEST MISSOURI...

CITY           SKY/WX    TMP DP  RH WIND       PRES   REMARKS
SPRINGFIELD    CLEAR     71  50  47 N6        30.20R
JOPLIN         CLEAR     70  52  52 N5        30.20R
BRANSON        PTCLDY    66  57  72 CALM      30.21R

$$
MOZ032>034-039>042-045>050-055>058-069>072-250300-
...CENTRAL MISSOURI...

CITY           SKY/WX    TMP DP  RH WIND       PRES   REMARKS
COLUMBIA       MOCLDY    67  52  58 SW3       30.17S
JEFFERSON CITY CLEAR     68  51  54 CALM      30.16S
ROLLA          CLEAR     64  50  60 CALM      30.18R
SEDALIA        CLOUDY    71  52  50 CALM      30.18S
WARRENSBURG    CLOUDY    70  52  52 S5        30.17R
OSAGE BEACH    CLEAR     64  54  69 CALM      30.20R

$$
MOZ051-052-059>065-250300-
...EAST CENTRAL MISSOURI...

CITY           SKY/WX    TMP DP  RH WIND       PRES   REMARKS
ST LOUIS INTL  PTCLDY    72  45  37 CALM      30.16R
SPIRIT OF STL  CLEAR     65  52  62 CALM      30.16R
ST CHARLES     CLEAR     71  43  36 NW5       30.14R

$$
MOZ072>076-082>087-097>100-106>115-250300-
...SOUTH CENTRAL AND SOUTHEAST MISSOURI...

CITY           SKY/WX    TMP DP  RH WIND       PRES   REMARKS
CAPE GIRARDEAU MOCLDY    67  59  75 S3        30.14R
FARMINGTON     CLEAR     70  48  45 N5        30.18R
POPLAR BLUFF   MOCLDY    69  66  90 CALM      30.14R
WEST PLAINS    CLEAR     69  52  54 N5        30.20R

$$



USA.gov is the U.S. government's official web portal to all federal, state and local government web resources and services.